Location: Seattle
(47.6064°N, 122.3308°W)
Time: 15:10:03
(UTC-08:00)

Tiros 1 - Visible Passes

Search period start: 05 December 2020 00:00
Search period end: 15 December 2020 00:00
Orbit: 630 x 664 km, 48.4° (Epoch: 05 December)

Date Brightness Start Highest point End Pass type
(mag) Time Alt. Az. Time Alt. Az. Time Alt. Az.
05 Dec 7.9 17:55:19 10° WNW 17:59:59 52° SSW 18:04:13 12° SE visible
05 Dec 9.7 19:38:41 10° W 19:41:26 15° SW 19:41:55 15° SW visible
06 Dec 8.9 18:21:33 10° W 18:25:45 31° SW 18:29:55 10° SSE visible
07 Dec 8.0 17:05:08 10° WNW 17:09:51 55° SSW 17:14:30 10° SE visible
07 Dec 9.8 18:48:20 10° W 18:51:20 17° SW 18:54:18 10° S visible
08 Dec 8.9 17:31:20 10° W 17:35:37 33° SW 17:39:52 10° SSE visible
09 Dec 9.9 17:58:01 10° W 18:01:13 18° SW 18:04:24 10° S visible
11 Dec 10.0 17:07:43 10° W 17:11:06 19° SW 17:14:28 10° S visible
